Temp
14 15 17 18 17 15 15 16 17 17 15 15 14 14 15 14 15 14 14 13 12 13 12 12 12 12 13 13 11 11 11 10
13 15 16 18 17 14 14 14 15 15 14 14 14 14 13 12 13 13 13 13 12 12 12 12 11 11 13 12 11 10 9 9
12 13 14 15 16 14 14 14 14 14 14 14 13 13 13 13 13 13 13 13 13 13 13 12 13 12 12 12 11 10 9 9
11 12 12 13 15 15 14 14 13 14 13 13 13 13 13 13 13 13 13 13 13 13 12 12 12 11 12 12 13 11 11 9
11 11 11 11 11 13 14 14 13 13 14 13 14 13 13 13 13 13 13 12 13 13 13 12 12 12 12 11 13 11 10 10
11 11 11 11 10 10 11 12 12 12 13 14 13 13 13 13 13 13 13 12 12 12 12 13 12 12 11 10 10 10 9 10
11 11 11 11 11 10 10 10 11 11 12 13 13 12 12 13 12 13 12 12 12 12 13 13 12 12 11 11 10 11 10 9
11 12 11 11 10 10 10 10 10 10 10 11 11 12 10 10 9 10 11 12 12 11 12 12 11 12 11 10 10 10 10 9
10 10 10 10 10 10 10 10 10 9 10 9 9 8 9 9 10 8 8 8 8 8 9 8 8 8 8 8 8 9 7 8
10 10 11 10 10 10 9 9 9 10 9 9 9 8 7 8 8 9 8 7 7 7 7 8 8 4 5 6 5 5 6 7
10 10 11 10 10 10 9 9 9 10 9 9 8 8 7 7 6 7 7 7 6 6 7 7 6 6 5 6 4 4 4 4
10 11 11 11 11 10 10 10 10 10 9 9 8 8 8 8 7 6 6 6 6 5 5 5 5 6 5 5 4 3 4 4
9 9 11 11 11 10 10 10 11 11 10 9 9 8 8 8 8 7 7 7 5 5 5 4 5 4 5 4 3 2 3 3
9 9 9 9 9 9 9 9 9 10 10 9 9 8 8 8 7 7 6 6 6 6 5 5 5 4 4 3 3 3 2 2
8 7 7 8 8 7 8 8 8 8 8 9 9 9 8 8 8 8 8 7 6 6 6 5 5 4 4 4 3 2 1 1
8 7 7 7 7 7 7 7 7 8 8 8 8 8 8 8 8 8 8 8 7 5 6 5 5 4 4 3 3 2 2 1
6 6 6 7 7 7 7 7 7 7 7 7 7 8 8 7 7 7 7 7 7 6 5 5 5 4 4 3 3 2 2 1
6 6 6 6 6 7 7 7 7 7 7 7 7 7 7 7 7 7 7 7 8 5 5 5 5 4 3 3 2 2 1 0
6 6 6 5 5 6 6 6 6 6 6 7 7 7 7 7 7 7 7 7 6 6 4 4 4 4 3 3 2 1 1 0
Height
1456 1453 1450 1447 1449 1453 1456 1455 1459 1461 1463 1464 1466 1467 1467 1470 1470 1472 1476 1481 1487 1488 1488 1493 1499 1498 1501 1502 1514 1517 1521 1525
1458 1454 1451 1448 1446 1449 1452 1453 1452 1452 1453 1454 1454 1454 1461 1462 1464 1466 1468 1471 1474 1480 1483 1485 1493 1494 1489 1501 1505 1512 1514 1518
1458 1454 1453 1451 1449 1448 1447 1448 1448 1449 1448 1447 1447 1450 1450 1451 1453 1454 1457 1461 1463 1465 1470 1476 1480 1486 1485 1489 1492 1502 1505 1510
1457 1454 1453 1452 1450 1448 1448 1449 1447 1446 1444 1444 1446 1445 1442 1443 1444 1444 1444 1447 1451 1455 1458 1462 1467 1473 1474 1479 1474 1489 1492 1498
1460 1457 1454 1451 1451 1450 1449 1446 1443 1442 1440 1438 1437 1436 1434 1430 1431 1435 1434 1435 1439 1444 1447 1449 1452 1458 1460 1468 1465 1474 1480 1483
1460 1458 1455 1452 1449 1447 1447 1444 1442 1440 1438 1435 1432 1429 1427 1427 1424 1423 1424 1426 1427 1430 1434 1436 1437 1441 1448 1454 1454 1460 1471 1477
1459 1457 1454 1452 1449 1446 1444 1442 1438 1436 1434 1430 1426 1423 1418 1416 1414 1410 1412 1413 1418 1418 1420 1422 1421 1423 1426 1436 1447 1450 1457 1466
1456 1454 1451 1449 1445 1443 1442 1439 1437 1432 1428 1425 1421 1417 1417 1414 1406 1407 1404 1402 1403 1406 1403 1409 1406 1404 1409 1412 1423 1434 1441 1449
1453 1451 1449 1448 1445 1441 1440 1438 1434 1430 1425 1421 1418 1413 1408 1408 1395 1408 1400 1401 1399 1403 1398 1399 1405 1402 1380 1404 1413 1419 1433 1438
1452 1449 1446 1444 1442 1439 1436 1434 1432 1429 1424 1420 1416 1410 1406 1406 1401 1395 1401 1401 1399 1393 1395 1400 1399 1409 1398 1394 1403 1419 1426 1436
1449 1446 1443 1440 1438 1436 1433 1431 1428 1426 1423 1419 1415 1410 1405 1400 1397 1400 1396 1397 1397 1398 1393 1390 1391 1395 1398 1403 1407 1416 1426 1433
1446 1442 1439 1436 1433 1432 1429 1427 1424 1422 1420 1417 1415 1411 1407 1403 1400 1399 1394 1391 1390 1397 1387 1391 1391 1392 1396 1404 1413 1414 1418 1425
1442 1440 1435 1431 1428 1427 1426 1423 1421 1418 1416 1413 1413 1409 1406 1402 1400 1398 1399 1393 1391 1389 1391 1391 1382 1389 1397 1404 1409 1415 1419 1423
1439 1435 1434 1429 1426 1424 1422 1420 1418 1416 1413 1410 1408 1405 1404 1401 1399 1397 1399 1391 1392 1393 1392 1385 1386 1386 1398 1403 1408 1415 1419 1423
1437 1434 1432 1428 1426 1425 1421 1417 1416 1415 1413 1408 1406 1403 1399 1396 1394 1393 1392 1390 1388 1392 1390 1389 1388 1390 1395 1401 1403 1409 1416 1421
1436 1432 1430 1427 1425 1421 1419 1416 1414 1412 1409 1407 1404 1399 1396 1394 1392 1388 1389 1387 1387 1390 1388 1386 1388 1390 1392 1396 1400 1405 1411 1419
1431 1429 1427 1424 1422 1419 1416 1413 1411 1409 1407 1404 1401 1396 1393 1390 1387 1386 1384 1383 1384 1386 1385 1382 1386 1388 1391 1395 1398 1402 1410 1415
1429 1427 1423 1420 1418 1416 1413 1410 1407 1404 1401 1399 1396 1392 1389 1386 1384 1383 1382 1381 1381 1382 1380 1381 1382 1388 1390 1391 1395 1401 1406 1409
1423 1421 1418 1415 1413 1410 1407 1404 1402 1399 1395 1393 1390 1388 1386 1384 1380 1378 1378 1377 1377 1376 1377 1377 1380 1382 1388 1389 1390 1397 1402 1406
Wind_Speed
18 18 16 13 20 25 31 36 41 46 47 50 51 51 54 53 53 53 50 47 44 41 37 37 38 38 34 35 33 31 28 27
14 17 20 16 12 15 24 31 35 41 48 51 55 56 51 51 54 55 53 49 46 46 44 38 38 40 36 37 35 34 31 31
20 22 21 22 19 14 19 28 32 41 44 48 50 54 55 53 54 57 55 53 51 50 48 46 45 49 46 44 39 39 37 35
21 23 24 23 21 20 23 25 25 35 41 45 45 45 46 51 54 57 60 59 55 53 53 53 51 50 48 48 43 48 45 41
20 22 23 24 25 22 22 22 25 27 30 40 47 50 51 54 55 56 59 61 59 58 57 56 58 56 55 55 48 51 51 48
19 22 23 23 23 24 25 22 19 20 28 35 40 49 54 53 51 54 55 59 61 58 61 62 63 63 61 60 57 55 53 49
18 19 21 23 23 22 20 21 24 25 25 26 32 27 41 53 51 58 57 56 59 61 62 66 68 69 68 61 56 55 53 53
19 21 24 23 23 22 21 22 25 25 25 23 23 25 24 20 17 38 49 56 57 60 63 58 73 71 70 64 62 58 56 54
24 23 25 27 24 21 21 20 24 26 25 29 28 23 26 29 25 24 22 26 37 43 43 47 57 59 70 62 64 57 53 50
28 25 21 26 25 23 22 22 23 24 25 26 28 24 21 20 20 21 18 22 22 21 28 32 37 35 54 46 47 38 44 45
29 26 27 27 24 22 22 22 22 21 21 22 24 25 21 24 17 10 9 15 19 21 19 26 34 31 30 28 34 38 39 38
25 28 29 25 19 20 21 21 24 23 21 20 18 17 20 21 18 13 12 11 10 12 13 16 22 25 27 27 33 38 38 37
25 28 27 25 16 18 21 22 22 22 21 19 19 17 16 17 17 13 10 15 13 8 8 10 6 15 20 25 26 27 30 31
31 33 32 19 9 7 9 13 16 16 13 14 17 16 17 17 18 20 19 12 9 11 6 7 10 9 18 21 24 27 28 29
20 15 12 10 7 9 10 11 13 16 17 17 15 15 14 14 13 17 21 18 16 16 15 5 9 6 14 20 17 20 21 23
22 15 14 13 9 10 11 12 13 15 16 19 21 23 18 14 17 18 19 18 16 16 14 12 10 17 11 19 25 22 24 27
14 14 15 17 18 19 18 16 16 17 18 20 21 22 20 14 12 14 15 18 18 16 14 16 22 23 21 23 22 25 26 22
20 21 22 23 24 26 27 27 24 23 24 23 21 21 19 20 18 17 18 18 20 20 16 14 18 19 21 21 23 25 24 22
36 32 29 29 30 31 29 28 28 27 28 27 22 22 25 24 21 19 20 23 21 20 20 14 15 20 18 18 16 22 24 22
Wind_Direction
6 358 341 299 271 271 266 259 258 254 247 241 240 240 243 240 239 239 237 240 233 230 225 223 224 220 216 214 219 216 218 215
9 1 353 344 294 270 280 269 268 254 250 247 244 242 240 242 242 241 241 239 241 232 232 225 227 224 219 219 215 218 209 211
18 18 9 1 347 287 252 257 264 259 259 252 250 247 247 247 247 246 246 243 239 229 230 226 222 225 218 215 214 212 212 209
20 19 18 13 6 358 338 294 268 264 265 261 255 245 240 247 246 248 250 244 237 235 233 227 225 226 220 218 214 219 213 205
14 8 11 16 16 9 349 344 326 273 262 255 257 254 248 244 248 250 249 250 244 235 235 230 229 224 222 221 219 220 217 209
7 7 2 356 354 359 357 351 325 310 288 274 263 260 250 252 250 243 245 251 251 242 235 234 230 224 224 221 216 214 218 217
4 2 353 349 351 353 348 337 326 326 328 318 272 276 259 249 245 245 245 245 249 248 241 239 232 225 222 221 222 218 219 220
355 353 349 345 348 350 358 1 359 353 346 316 306 292 306 295 296 255 248 248 250 248 246 243 236 229 221 217 215 215 215 219
335 332 335 331 328 327 341 348 354 353 354 356 342 329 314 300 323 313 275 257 238 238 244 244 243 235 217 216 213 210 214 218
330 321 323 329 321 321 315 320 329 340 349 348 349 344 336 329 319 327 316 295 269 261 247 250 257 245 225 218 216 219 216 216
327 330 328 324 318 315 314 311 317 323 331 336 347 349 341 338 336 319 316 314 312 301 271 260 253 237 234 222 222 207 210 206
310 322 325 319 308 309 310 308 310 312 312 316 322 342 352 350 345 327 5 5 351 296 307 260 244 234 232 225 220 213 213 214
313 323 322 320 304 298 304 309 307 307 300 297 300 307 322 348 348 352 360 14 4 359 282 279 266 241 244 238 221 215 209 206
309 305 310 317 300 307 318 330 332 328 317 314 308 301 297 306 317 319 305 309 342 323 351 312 259 241 237 236 227 226 225 221
319 324 325 332 322 330 334 329 328 331 329 329 325 314 296 294 311 312 313 313 288 282 294 274 281 215 234 230 227 230 233 234
294 301 312 321 322 320 318 321 323 328 325 323 320 321 318 284 284 297 299 308 305 289 279 237 280 228 241 223 229 228 229 219
290 302 309 317 322 326 324 315 317 314 311 309 313 312 309 309 321 324 315 310 301 286 287 271 251 242 236 224 226 217 222 224
310 307 308 310 311 310 307 310 312 312 314 308 302 300 303 308 305 311 317 311 305 287 271 262 256 249 240 226 226 219 219 217
302 298 299 302 304 303 300 298 298 299 300 306 299 296 292 298 298 299 297 304 297 289 266 260 248 247 236 231 218 216 214 211